Flag for Portugal Weather past 2 weeks in Lisbon, Portugal

Now
75 °F

Passing clouds.


Feels Like: 77 °F
Forecast: 58 / 76 °F
Wind: 13 mph from East

Location: Lisbon Portela Airport

Current Time: Apr 1, 2015 at 2:29:40 PM

Latest Report: Apr 1, 2015 at 1:30 PM


Visibility: N/A

Pressure: 30.24 "Hg

Humidity: 36%

Dew point: 46 °F

Location of LisbonLocation

Historic Weather in Lisbon — Graph

°F

Lisbon temperature yesterday

Maximum temperature yesterday: 68 °F (at 2:30 PM)
Minimum temperature yesterday: 52 °F (at 1:30 AM)
Average temperature yesterday: 58 °F

Past Weeks' High & Low Weather Summary

 TemperatureHumidityPressure
High75 °F (Apr 1, 1:00 PM)100% (Mar 17, 6:00 PM)30.48 "Hg (Mar 17, 6:00 PM)
Low46 °F (Mar 18, 12:00 AM)36% (Apr 1, 1:00 PM)29.65 "Hg (Mar 24, 4:30 AM)
Average56 °F75%30.06 "Hg
* Reported Mar 17 12:00 Noon — Apr 1 1:30 PM, Lisbon, Weather by CustomWeather, © 2015

Note: Actual official high and low records may vary slightly from our data, if they occured in-between our weather recording intervals... More about our weather records

Advertising

Lisbon weather history for previous 24 hours

 ConditionsComfort  
Time TempWeatherWind HumidityBarometerVisibility
1:30 PM
Wed, Apr 1
75 °FPassing clouds.13 mph36%30.24 "HgN/A
1:00 PM75 °FSunny.13 mph36%30.27 "Hg10 mi
12:30 PM72 °FSunny.14 mph44%30.27 "Hg10 mi
12:00 PM70 °FSunny.10 mph46%30.27 "Hg10 mi
11:30 AM70 °FSunny.13 mph43%30.27 "Hg10 mi
11:00 AM66 °FPassing clouds.6 mph60%30.30 "HgN/A
10:49 AM66 °FSunny.6 mph60%30.30 "Hg10 mi
10:30 AM63 °FSunny.6 mph68%30.30 "Hg10 mi
10:00 AM61 °FPassing clouds.6 mph72%30.30 "HgN/A
9:30 AM59 °FSunny.2 mph77%30.27 "Hg10 mi
9:00 AM57 °FPassing clouds.3 mph82%30.27 "HgN/A
8:30 AM55 °FPassing clouds.5 mph82%30.27 "HgN/A
8:00 AM50 °FPassing clouds.3 mph100%30.27 "HgN/A
7:30 AM50 °FClear.6 mph94%30.24 "Hg10 mi
7:00 AM52 °FClear.6 mph88%30.24 "Hg10 mi
6:30 AM54 °FClear.8 mph88%30.24 "Hg10 mi
6:00 AM54 °FClear.7 mph88%30.24 "Hg10 mi
5:30 AM55 °FClear.9 mph82%30.27 "Hg10 mi
5:00 AM57 °FClear.13 mph77%30.27 "Hg10 mi
4:30 AM57 °FClear.9 mph72%30.27 "Hg10 mi
4:00 AM55 °FClear.7 mph77%30.27 "Hg10 mi
3:30 AM55 °FClear.9 mph82%30.27 "Hg10 mi
3:00 AM55 °FClear.12 mph82%30.30 "Hg10 mi
2:30 AM57 °FClear.12 mph77%30.30 "Hg10 mi
2:00 AM55 °FPassing clouds.6 mph77%30.30 "HgN/A
1:30 AM55 °FClear.8 mph72%30.33 "Hg10 mi
1:00 AM57 °FClear.10 mph72%30.33 "Hg10 mi
12:30 AM55 °FClear.14 mph77%30.33 "Hg10 mi
12:00 AM55 °FClear.15 mph82%30.33 "Hg10 mi
11:30 PM
Tue, Mar 31
55 °FPassing clouds.15 mph82%30.33 "HgN/A
11:00 PM55 °FClear.15 mph82%30.33 "Hg10 mi
10:30 PM57 °FClear.20 mph77%30.33 "Hg10 mi
10:00 PM57 °FClear.22 mph77%30.33 "Hg10 mi
9:51 PM57 °FClear.22 mph77%30.33 "Hg10 mi
9:30 PM57 °FClear.20 mph77%30.33 "Hg10 mi
9:00 PM57 °FPassing clouds.18 mph77%30.33 "HgN/A
8:30 PM57 °FPassing clouds.21 mph77%30.30 "HgN/A
8:00 PM59 °FPassing clouds.20 mph68%30.30 "HgN/A
7:30 PM61 °FPassing clouds.21 mph63%30.30 "HgN/A
7:02 PM63 °FPassing clouds.22 mph59%30.30 "HgN/A
6:30 PM64 °FPassing clouds.22 mph56%30.30 "HgN/A
6:00 PM64 °FPassing clouds.22 mph56%30.30 "HgN/A
5:30 PM66 °FPassing clouds.16 mph52%30.30 "HgN/A
5:00 PM66 °FPassing clouds.18 mph56%30.30 "HgN/A
4:30 PM68 °FPassing clouds.15 mph49%30.33 "HgN/A
4:00 PM68 °FPassing clouds.17 mph49%30.33 "HgN/A
3:30 PM68 °FPassing clouds.16 mph53%30.33 "HgN/A
3:00 PM68 °FPassing clouds.18 mph53%30.36 "HgN/A
2:30 PM68 °FPassing clouds.14 mph53%30.36 "HgN/A
2:00 PM66 °FPassing clouds.13 mph56%30.39 "HgN/A
Weather by CustomWeather, © 2015

See weather overviewHow to use our weather pages